13:13
Airports
History
Links
Donate
Help keep this website running!
PayPal
Bitcoin
This page is community maintained. The information is intended for PC simulator navigation or reference.
Always use approved charts for navigation.
IA26
Carter Field
Carter Field (IA26)
Stockport, Iowa, United States (52651)
4
Lat/Lng:40° 48' 30.1" N / 91° 48' 30.6" W
40.808362 / -91.808501
Elevation:750'ft / 229mMSL
ID / ICAO:IA26
Runways:1
Longest:18-36
Grass 805m / 2,640ft
Nearby Weather12:55 GMT 2017-10-17
Nearby weather at KFFL, Fairfield Muni located 19.3 nautical miles from IA26
Altimeter: 30.18
Visibility: 10.0 statute miles
Wind: 9 knots (from 200°)
Temp: 10°c / 50°f
Humidity: 66.2%

METAR: KFFL 171255Z AUTO 20009KT 10SM CLR 10/04 A3018 RMK AO2 PWINO

(Powered by phpweather)
Nearby VORs <50NM
Nearby NDBs
Runway 18 / 36
Dimensions:804.7 x 24.4m 2640' x 80'ft
Surface:Grass
Runway 18 [A]Runway 36 [B]
Heading:183°TH 003°TH
Lat:
Lng:
40° 48' 43.12"N
91° 48' 29.7"W
40° 48' 17.09"N
91° 48' 31.5"W
User Notes and Comments
40° 48' 30.1" N / 91° 48' 30.6" W
Distance To
Airport ID:
Nearby Airports
4 Keosauqua Muni 8.9 NM
6K9 SW 235°
(R) R S Auto 13.0 NM
6IA7 NNE 14°
(U) Mount Pleasant Muni 18.2 NM
KMPZ ENE 58°
4 Donnellson 19.0 NM
IA65 SE 132°
(U) Fairfield Muni 19.3 NM
KFFL ( WX ) NNW 332°
4 Estle Field 20.1 NM
IA61 NNW 339°
4 Orr-Port 23.0 NM
IA22 ENE 66°
VFR Chart
Flight Planning at SkyVector.com